Change the Weather History Date:

Monday, October 17, 2011

  Actual Average Record
Temperature  
Mean Temperature 77 °F 81 °F  
Max Temperature 80 °F 85 °F 90 °F (2007)
Min Temperature 73 °F 76 °F 73 °F (2000)
Degree Days  
Heating Degree Days 0 0  
Month to date heating degree days 0 0  
Since 1 July heating degree days 0 0  
Cooling Degree Days 12 16  
Month to date cooling degree days 258 288  
Year to date cooling degree days 4598 4242  
Growing Degree Days 26 (Base 50)    
Moisture  
Dew Point 74 °F    
Average Humidity 94    
Maximum Humidity 100    
Minimum Humidity 87    
Precipitation  
Precipitation 3.37 in 0.12 in 3.37 in (2011)
Month to date precipitation 10.81 2.85  
Year to date precipitation 25.98 39.40  
Snow  
Snow 0.00 in - - ()
Month to date snowfall 0.0  
Since 1 July snowfall 0.0  
Since 1 September snowfall 0.0  
Snow Depth 0.00 in    
Sea Level Pressure  
Sea Level Pressure 29.89 in    
Wind  
Wind Speed 12 mph (ENE)    
Max Wind Speed 20 mph    
Max Gust Speed 28 mph    
Visibility 5 miles    
Events Fog , Rain , Thunderstorm    
T = Trace of Precipitation, MM = Missing Value Source: NWS Daily Summary

Daily Weather History Graph

Daily Weather History Graph

Search for Another Location

Airport or City:

Trip Planner

Search our weather history database for the weather conditions in past years. The results will help you decide how hot, cold, wet, or windy it might be!

Date:

Astronomy

Oct. 17, 2011 Rise Set
Actual Time 7:23 AM EDT 6:55 PM EDT
Civil Twilight 7:00 AM EDT 7:18 PM EDT
Nautical Twilight 6:33 AM EDT 7:45 PM EDT
Astronomical Twilight 6:06 AM EDT 8:11 PM EDT
Moon 10:59 PM EDT (10/17) 12:03 PM EDT (10/17)
Length of Visible Light 12h 18m
Length of Day
11h 32m
Waning Gibbous, 74% of the Moon is Illuminated
Oct 17
Waning Gibbous
Oct 19
Last Quarter
Oct 26
New
Nov 2
First Quarter
Nov 10
Full

Hourly Weather History & Observations

Time (EDT) Temp. Dew Point Humidity Pressure Visibility Wind Dir Wind Speed Gust Speed Precip Events Conditions
12:53 AM 75.9 °F 75.0 °F 97% 29.92 in 6.0 mi East 16.1 mph 24.2 mph 0.07 in Rain Rain
1:03 AM 75.2 °F 75.2 °F 100% 29.93 in 4.0 mi East 16.1 mph 24.2 mph 0.03 in Rain , Thunderstorm Heavy Rain
1:18 AM 75.2 °F 73.4 °F 94% 29.92 in 2.0 mi ENE 12.7 mph - 0.19 in Rain Heavy Rain
1:42 AM 75.2 °F 75.2 °F 100% 29.91 in 4.0 mi ENE 17.3 mph - 0.39 in Rain Heavy Rain
1:53 AM 75.9 °F 75.0 °F 97% 29.91 in 7.0 mi East 13.8 mph 19.6 mph 0.40 in Rain Light Rain
1:58 AM 75.2 °F 73.4 °F 94% 29.91 in 4.0 mi East 18.4 mph 26.5 mph 0.04 in Rain Rain
2:00 AM 75.2 °F 73.4 °F 94% 29.90 in 2.5 mi East 18.4 mph 26.5 mph 0.07 in Rain Heavy Rain
2:14 AM 75.2 °F 75.2 °F 100% 29.90 in 5.0 mi East 15.0 mph 25.3 mph 0.10 in Rain Rain
2:53 AM 77.0 °F 75.0 °F 94% 29.89 in 10.0 mi ENE 12.7 mph 19.6 mph 0.10 in   Mostly Cloudy
3:06 AM 77.0 °F 75.2 °F 94% 29.89 in 10.0 mi ENE 16.1 mph 21.9 mph N/A   Overcast
3:30 AM 77.0 °F 73.4 °F 89% 29.89 in 10.0 mi East 12.7 mph 21.9 mph 0.00 in Rain Light Rain
3:53 AM 77.0 °F 73.9 °F 90% 29.88 in 9.0 mi ENE 16.1 mph - 0.00 in Rain Light Rain
4:11 AM 75.2 °F 75.2 °F 100% 29.87 in 4.0 mi NE 18.4 mph 24.2 mph 0.04 in Rain Rain
4:19 AM 75.2 °F 75.2 °F 100% 29.87 in 1.8 mi ENE 16.1 mph 24.2 mph 0.15 in Rain Heavy Rain
4:26 AM 75.2 °F 75.2 °F 100% 29.88 in 2.0 mi ENE 13.8 mph 24.2 mph 0.20 in Rain Heavy Rain
4:33 AM 75.2 °F 75.2 °F 100% 29.87 in 2.5 mi ENE 15.0 mph - 0.26 in Rain Heavy Rain
4:41 AM 75.2 °F 73.4 °F 94% 29.87 in 5.0 mi ENE 15.0 mph - 0.27 in Rain Rain
4:53 AM 77.0 °F 75.0 °F 94% 29.87 in 6.0 mi East 13.8 mph - 0.29 in Rain Light Rain
5:08 AM 77.0 °F 75.2 °F 94% 29.87 in 5.0 mi ENE 13.8 mph 23.0 mph 0.03 in Rain Rain
5:16 AM 77.0 °F 75.2 °F 94% 29.87 in 5.0 mi ENE 16.1 mph 24.2 mph 0.05 in Rain Rain
5:33 AM 75.2 °F 75.2 °F 100% 29.87 in 3.0 mi East 15.0 mph 23.0 mph 0.13 in Rain , Thunderstorm Heavy Rain
5:35 AM 75.2 °F 75.2 °F 100% 29.88 in 2.5 mi East 13.8 mph 23.0 mph 0.14 in Rain , Thunderstorm Heavy Rain
5:41 AM 75.2 °F 75.2 °F 100% 29.88 in 3.0 mi ENE 13.8 mph 24.2 mph 0.16 in Rain , Thunderstorm Heavy Rain
5:50 AM 75.2 °F 75.2 °F 100% 29.88 in 4.0 mi East 15.0 mph 21.9 mph 0.20 in Rain Heavy Rain
6:53 AM 75.9 °F 75.0 °F 97% 29.89 in 4.0 mi East 11.5 mph 21.9 mph 0.16 in Rain Rain
7:53 AM 77.0 °F 75.0 °F 94% 29.89 in 6.0 mi East 18.4 mph 25.3 mph 0.17 in Rain Light Rain
8:24 AM 77.0 °F 75.2 °F 94% 29.91 in 2.0 mi East 12.7 mph - 0.10 in Rain Heavy Rain
8:27 AM 77.0 °F 75.2 °F 94% 29.91 in 1.8 mi East 11.5 mph - 0.12 in Rain Heavy Rain
8:34 AM 77.0 °F 75.2 °F 94% 29.92 in 2.5 mi East 13.8 mph 21.9 mph 0.13 in Rain Rain
8:37 AM 75.2 °F 75.2 °F 100% 29.92 in 3.0 mi East 13.8 mph 21.9 mph 0.14 in Rain Rain
8:40 AM 75.2 °F 75.2 °F 100% 29.92 in 2.5 mi East 12.7 mph 21.9 mph 0.15 in Rain Rain
8:53 AM 77.0 °F 75.0 °F 94% 29.92 in 2.0 mi ENE 10.4 mph - 0.22 in Rain Heavy Rain
9:06 AM 77.0 °F 75.2 °F 94% 29.92 in 4.0 mi East 10.4 mph - 0.02 in Rain Rain
9:11 AM 77.0 °F 75.2 °F 94% 29.92 in 1.8 mi East 15.0 mph 20.7 mph 0.10 in Rain Heavy Rain
9:19 AM 75.2 °F 75.2 °F 100% 29.93 in 0.8 mi East 15.0 mph 23.0 mph 0.23 in Rain Heavy Rain
9:30 AM 73.4 °F 73.4 °F 100% 29.93 in 0.5 mi East 10.4 mph 23.0 mph 0.53 in Fog , Rain Heavy Rain
9:43 AM 73.4 °F 73.4 °F 100% 29.93 in 1.8 mi East 11.5 mph 17.3 mph 0.61 in Rain Rain
9:46 AM 75.2 °F 75.2 °F 100% 29.93 in 3.0 mi East 12.7 mph 19.6 mph 0.61 in Rain Light Rain
10:01 AM 77.0 °F 75.2 °F 94% 29.94 in 1.8 mi East 8.1 mph 18.4 mph 0.05 in Rain Heavy Rain
10:15 AM 75.2 °F 75.2 °F 100% 29.93 in 3.0 mi ESE 10.4 mph 24.2 mph 0.10 in Rain Rain
10:27 AM 75.2 °F 73.4 °F 94% 29.93 in 4.0 mi East 9.2 mph 18.4 mph 0.11 in Rain Rain
10:42 AM 75.2 °F 73.4 °F 94% 29.93 in 5.0 mi East 10.4 mph 20.7 mph 0.13 in Rain Rain
10:53 AM 75.0 °F 72.0 °F 90% 29.94 in 8.0 mi East 9.2 mph 19.6 mph 0.13 in Rain Light Rain
11:15 AM 75.2 °F 73.4 °F 94% 29.94 in 1.8 mi ESE 12.7 mph 19.6 mph 0.08 in Rain Rain
11:39 AM 73.4 °F 71.6 °F 94% 29.94 in 2.0 mi East 9.2 mph 18.4 mph 0.21 in Rain Heavy Rain
11:50 AM 73.4 °F 71.6 °F 94% 29.94 in 4.0 mi East 10.4 mph - 0.23 in Rain Rain
11:53 AM 73.9 °F 72.0 °F 93% 29.94 in 4.0 mi East 9.2 mph - 0.23 in Rain Rain
12:53 PM 73.9 °F 73.0 °F 97% 29.93 in 5.0 mi ENE 9.2 mph - 0.07 in Rain Rain
1:11 PM 75.2 °F 73.4 °F 94% 29.92 in 3.0 mi East 10.4 mph - 0.04 in Rain Rain
1:17 PM 73.4 °F 73.4 °F 100% 29.92 in 1.8 mi East 9.2 mph - 0.10 in Rain Heavy Rain
1:29 PM 73.4 °F 73.4 °F 100% 29.90 in 2.5 mi ENE 8.1 mph - 0.15 in Rain Rain
1:31 PM 75.2 °F 73.4 °F 94% 29.90 in 3.0 mi ENE 8.1 mph - 0.15 in Rain Rain
1:53 PM 75.0 °F 73.0 °F 94% 29.89 in 4.0 mi ENE 9.2 mph - 0.19 in Rain Rain
2:53 PM 75.0 °F 73.9 °F 96% 29.86 in 9.0 mi NE 13.8 mph - 0.01 in Rain Light Rain
3:53 PM 75.9 °F 73.9 °F 94% 29.84 in 3.0 mi NE 13.8 mph - 0.02 in Rain Heavy Rain
4:14 PM 75.2 °F 73.4 °F 94% 29.85 in 1.8 mi ENE 10.4 mph - 0.09 in Rain Heavy Rain
4:29 PM 75.2 °F 75.2 °F 100% 29.86 in 0.8 mi ENE 9.2 mph - 0.35 in Rain Heavy Rain
4:37 PM 75.2 °F 75.2 °F 100% 29.85 in 0.8 mi ENE 11.5 mph - 0.53 in Rain Heavy Rain
4:45 PM 75.2 °F 73.4 °F 94% 29.85 in 2.5 mi ENE 11.5 mph 19.6 mph 0.53 in Rain Light Rain
4:49 PM 75.2 °F 73.4 °F 94% 29.85 in 6.0 mi ENE 12.7 mph 19.6 mph 0.53 in Rain Light Rain
4:53 PM 75.0 °F 73.9 °F 96% 29.85 in 8.0 mi ENE 10.4 mph - 0.53 in Rain Light Rain
5:32 PM 77.0 °F 75.2 °F 94% 29.84 in 10.0 mi ENE 11.5 mph - 0.00 in   Scattered Clouds
5:53 PM 77.0 °F 75.0 °F 94% 29.85 in 10.0 mi ENE 13.8 mph - 0.00 in   Scattered Clouds
6:53 PM 75.9 °F 73.0 °F 91% 29.85 in 10.0 mi ENE 10.4 mph 20.7 mph N/A   Mostly Cloudy
7:53 PM 75.9 °F 73.9 °F 94% 29.85 in 10.0 mi ENE 11.5 mph - N/A   Partly Cloudy
8:53 PM 75.9 °F 73.0 °F 91% 29.84 in 10.0 mi ENE 15.0 mph - N/A   Scattered Clouds
9:53 PM 77.0 °F 73.9 °F 90% 29.85 in 10.0 mi ENE 15.0 mph - N/A   Overcast
10:53 PM 75.9 °F 73.0 °F 91% 29.85 in 10.0 mi ENE 12.7 mph - 0.03 in   Mostly Cloudy
11:32 PM 78.8 °F 73.4 °F 83% 29.84 in 10.0 mi ENE 10.4 mph - N/A   Overcast
11:53 PM 78.1 °F 75.9 °F 93% 29.83 in 10.0 mi ENE 10.4 mph - N/A   Overcast